Syracuse, NY

4:29 AM EST on November 13, 2019 (GMT -0500)
Syracuse Hancock International

Weather History for KSYR - September, 2019

Change the Weather History Date:

Monday, September 16, 2019

  Actual Average Record
Temperature  
Mean Temperature 63 °F 62 °F  
Max Temperature 73 °F 72 °F 98 °F (1939)
Min Temperature 53 °F 52 °F 35 °F (1964)
Degree Days  
Heating Degree Days 2 4  
Month to date heating degree days 25 44  
Since 1 July heating degree days 30 70  
Cooling Degree Days 0 2  
Month to date cooling degree days 21 41  
Year to date cooling degree days 589 554  
Growing Degree Days 13 (Base 50)    
Moisture  
Dew Point 52 °F    
Average Humidity 70    
Maximum Humidity 97    
Minimum Humidity 41    
Precipitation  
Precipitation 0.00 in 0.12 in 2.30 in (1999)
Month to date precipitation 2.04 1.90  
Year to date precipitation 32.68 26.49  
Snow  
Snow 0.00 in 0.00 in 0.00 in (2002)
Month to date snowfall 0.0 0.0  
Since 1 July snowfall T 0.0  
Since 1 September snowfall 0.0 0.0  
Snow Depth 0.00 in    
Sea Level Pressure  
Sea Level Pressure 30.11 in    
Wind  
Wind Speed 3 mph ()    
Max Wind Speed 13 mph    
Max Gust Speed 14 mph    
Visibility 10.0 miles    
Events      
T = Trace of Precipitation, MM = Missing Value Source: Averaged Metar Reports

Daily Weather History Graph

Daily Weather History Graph

Search for Another Location

Airport or City:

Astronomy

Sep. 16, 2019 Rise Set
Actual Time 6:44 AM EDT 7:13 PM EDT
Civil Twilight 6:16 AM EDT 7:41 PM EDT
Nautical Twilight 5:42 AM EDT 8:15 PM EDT
Astronomical Twilight 5:07 AM EDT 8:49 PM EDT
Moon 8:43 PM EDT (9/16) 8:52 AM EDT (9/16)
Length of Visible Light 13h 25m
Length of Day
12h 28m
Waning Gibbous, 94% of the Moon is Illuminated
Sep 16
Waning Gibbous
Sep 21
Last Quarter
Sep 28
New
Oct 5
First Quarter
Oct 13
Full

Hourly Weather History & Observations

Time (EDT) Temp. Dew Point Humidity Pressure Visibility Wind Dir Wind Speed Gust Speed Precip Events Conditions
12:54 AM 61.0 °F 57.9 °F 90% 30.10 in 10.0 mi Calm Calm - 0.00 in   Overcast
1:54 AM 61.0 °F 59.0 °F 93% 30.11 in 10.0 mi Calm Calm - N/A   Overcast
2:54 AM 60.1 °F 57.9 °F 93% 30.09 in 10.0 mi NNE 3.5 mph - N/A   Overcast
3:54 AM 61.0 °F 57.0 °F 87% 30.10 in 10.0 mi NNE 3.5 mph - N/A   Overcast
4:54 AM 60.1 °F 55.9 °F 86% 30.10 in 10.0 mi Calm Calm - N/A   Overcast
5:54 AM 59.0 °F 55.0 °F 87% 30.10 in 10.0 mi ENE 5.8 mph - N/A   Overcast
6:54 AM 57.9 °F 55.0 °F 90% 30.12 in 10.0 mi East 4.6 mph - N/A   Mostly Cloudy
7:54 AM 59.0 °F 55.0 °F 87% 30.13 in 10.0 mi NE 5.8 mph - N/A   Mostly Cloudy
8:54 AM 62.1 °F 53.1 °F 72% 30.14 in 10.0 mi ENE 5.8 mph - N/A   Mostly Cloudy
9:54 AM 63.0 °F 52.0 °F 67% 30.14 in 10.0 mi ENE 4.6 mph - N/A   Mostly Cloudy
10:54 AM 66.0 °F 46.9 °F 50% 30.13 in 10.0 mi ENE 4.6 mph - N/A   Scattered Clouds
11:54 AM 66.0 °F 46.0 °F 48% 30.11 in 10.0 mi Calm Calm - N/A   Scattered Clouds
12:54 PM 68.0 °F 48.9 °F 50% 30.10 in 10.0 mi Variable 3.5 mph - N/A   Partly Cloudy
1:54 PM 70.0 °F 46.9 °F 44% 30.09 in 10.0 mi Calm Calm - N/A   Partly Cloudy
2:54 PM 72.0 °F 46.9 °F 41% 30.08 in 10.0 mi NW 5.8 mph - N/A   Partly Cloudy
3:54 PM 72.0 °F 46.9 °F 41% 30.07 in 10.0 mi North 4.6 mph - N/A   Partly Cloudy
4:54 PM 72.0 °F 48.9 °F 44% 30.07 in 10.0 mi North 4.6 mph - N/A   Partly Cloudy
5:54 PM 68.0 °F 48.0 °F 49% 30.08 in 10.0 mi NNW 10.4 mph - N/A   Scattered Clouds
6:54 PM 64.0 °F 48.9 °F 58% 30.09 in 10.0 mi NNW 9.2 mph - N/A   Partly Cloudy
7:54 PM 60.1 °F 50.0 °F 69% 30.10 in 10.0 mi NW 5.8 mph - N/A   Partly Cloudy
8:54 PM 57.9 °F 50.0 °F 75% 30.11 in 10.0 mi NW 3.5 mph - N/A   Partly Cloudy
9:54 PM 55.9 °F 51.1 °F 84% 30.12 in 10.0 mi Calm Calm - N/A   Partly Cloudy
10:54 PM 54.0 °F 50.0 °F 86% 30.13 in 10.0 mi Calm Calm - N/A   Partly Cloudy
11:54 PM 54.0 °F 50.0 °F 86% 30.14 in 10.0 mi Calm Calm - N/A   Partly Cloudy